Weather Roundup
Issued by NWS Springfield, MO

Home | Current Version | Previous Version | Text Only | Print | Product List | Glossary On
Versions: 1 2 3 4 5 6 7 8 9 10 11 12 13 14 15 16 17 18 19 20 21 22 23 24 25 26 27 28 29 30 31 32 33 34 35 36 37 38 39 40 41 42 43 44 45 46 47 48 49 50
000
NZUS99 KSGF 251107
HRRSGF

HOURLY WEATHER
NATIONAL WEATHER SERVICE SPRINGFIELD MO
600 AM CDT MON SEP 25 2017

......SGF CWA......

CITY           SKY/WX    TMP DP  RH WIND       PRES   REMARKS
SPRINGFIELD    CLEAR     67  65  93 S9        29.98R
JOPLIN         CLEAR     70  65  84 SE8       29.95S
WEST PLAINS    CLEAR     62  60  93 CALM      30.03R
ROLLA          CLEAR     69  64  84 S9        30.01R
OSAGE BEACH    CLEAR     66  64  93 SE3       29.99R
BRANSON        CLEAR     66  64  94 CALM      30.01R

......SURROUNDING SGF CWA......

CITY           SKY/WX    TMP DP  RH WIND       PRES   REMARKS
CHANUTE        CLEAR     68  65  90 SE6       29.93S
PARSONS        CLEAR     66  64  93 CALM      29.94S
COFFEYVILLE    CLEAR     68  65  90 SE5       29.92S
EMPORIA        CLEAR     68  64  87 SE10      29.91S
GROVE OK       CLEAR     64  64 100 CALM      29.96S
ROGERS AR      CLEAR     68  65  90 SE7       29.99S
SILOAM SPRINGS CLEAR     66  62  87 E3        29.98
HARRISON AR    CLEAR     65  64  97 CALM      30.00S
NEAR YELLVILLE CLEAR     64  63  96 CALM      30.00R

......KANSAS AND MISSOURI......

CITY           SKY/WX    TMP DP  RH WIND       PRES   REMARKS
KANSAS CTY INT CLEAR     67  64  90 S7        29.92F
DOWNTOWN KC    CLEAR     72  65  78 S5        29.92S
COLUMBIA       CLEAR     67  64  90 S7        29.98R
SEDALIA        CLOUDY    71  67  87 S8        29.97R
ST JOSEPH      CLEAR     69  66  90 SE5       29.91S
ST LOUIS       CLEAR     71  65  81 CALM      30.00R
SPIRIT OF STL  CLEAR     64  64 100 CALM      29.99R
KIRKSVILLE     PTCLDY    67  63  87 S5        29.97S
WICHITA        MOCLDY    70  66  87 S9        29.88S
TOPEKA         CLEAR     70  67  90 E5        29.90F
OLATHE         CLEAR     66  65  96 S5        29.93F

......TENNESSEE......

CITY           SKY/WX    TMP DP  RH WIND       PRES   REMARKS
MEMPHIS        CLEAR     72  67  84 CALM      29.99R
NASHVILLE      PTCLDY    66  64  93 CALM      30.04R

......ARKANSAS.......

CITY           SKY/WX    TMP DP  RH WIND       PRES   REMARKS
FAYETTEVILLE   CLEAR     60  60 100 CALM      29.98S
FT SMITH       CLEAR     68  66  93 E5        29.95R
LITTLE ROCK    CLEAR     67  67 100 NE3       29.96S

......OKLAHOMA.......

CITY           SKY/WX    TMP DP  RH WIND       PRES   REMARKS
TULSA          MOCLDY    72  66  81 SE8       29.90S
PONCA CITY     CLEAR     73  63  70 S8        29.89S
MCALESTER      PTCLDY    71  66  84 SE3       29.93R
OKLAHOMA CITY  MOCLDY    70  64  81 S8        29.91R

......IOWA............

CITY           SKY/WX    TMP DP  RH WIND       PRES   REMARKS
DES MOINES     MOCLDY    70  64  81 CALM      29.92S
QUAD CITIES    CLEAR     65  60  84 E3        29.96S

......ILLINOIS........

CITY           SKY/WX    TMP DP  RH WIND       PRES   REMARKS
QUINCY         CLEAR     70  64  81 S5        29.97S
CHICAGO        CLEAR     68  57  68 CALM      30.00R



USA.gov is the U.S. government's official web portal to all federal, state and local government web resources and services.